Regional Weather Roundup
Issued by NWS State College, PA

Home | Current Version | Previous Version | Text Only | Print | Product List | Glossary On
Versions: 1 2 3 4 5 6 7 8 9 10 11 12 13 14 15 16 17 18 19 20 21 22 23 24 25 26 27 28 29 30 31 32 33 34 35 36 37 38 39 40 41 42 43 44 45 46 47 48 49 50
000
ASUS41 KCTP 140110
RWRCTP

REGIONAL WEATHER ROUNDUP
NATIONAL WEATHER SERVICE STATE COLLEGE PA
900 PM EDT SUN JUL 13 2014

Note: "fair" indicates few or no clouds below 12,000 feet with no
significant weather and/or obstructions to visibility.

* = STATION THAT DOES NOT REPORT PRECIPITATION /E.G. RAIN...SNOW...ETC/
    THUNDER OR FOG.

PAZ002>004-007>009-013>016-020>023-029>032-140200-
WESTERN PENNSYLVANIA

CITY           SKY/WX    TMP DP  RH WIND       PRES   REMARKS
ERIE           CLEAR     75  65  70 S6        29.88S
MEADVILLE      CLEAR     72  63  73 CALM      29.94R
FRANKLIN*      CLEAR     72  66  83 SW3       29.96R
NEW CASTLE       N/A     72  71  96 CALM      29.94R
BEAVER COUNTY  NOT AVBL
BUTLER*        CLOUDY    70  66  88 SW3       29.96F
PITTSBURGH INT CLOUDY    76  67  73 N12       29.94S
PITTSBURGH     MOCLDY    73  68  84 SW10      29.93F
INDIANA*       MOCLDY    72  70  94 W5        30.00S
LATROBE        MOCLDY    72  72 100 SW10      29.96R
WASHINGTON CO* CLOUDY    72  68  88 SW7       29.96S
$$

PAZ004>006-010>012-017>019-024>028-033>037-041-042-045-046-049>053-140200-
CENTRAL PENNSYLVANIA

CITY           SKY/WX    TMP DP  RH WIND       PRES   REMARKS
BRADFORD       PTCLDY    70  64  81 CALM      29.96R
DUBOIS         MOCLDY    70  68  93 SW6       29.95R
CLEARFIELD     MOCLDY    69  69 100 SW6       29.95F
JOHNSTOWN      MOCLDY    68  66  93 SW10      30.00R
ALTOONA        CLOUDY    71  69  93 CALM      29.98R
STATE COLLEGE  NOT AVBL
WILLIAMSPORT   LGT RAIN  72  68  87 W6        29.90R
SELINSGROVE    RAIN      71  69  93 NW5       29.94F FOG
FT INDIANTOWN  HVY RAIN  77  75  94 N22G33    29.91R
CAPITAL CITY   CLOUDY    82  70  66 NW6       29.90R
HARRISBURG     CLOUDY    85  70  60 MISG      29.88S
YORK           CLOUDY    83  69  62 VRB6      29.90S
$$

PAZ038>040-043-044-047-048-054-055-060>062-067>071-140200-
EASTERN PENNSYLVANIA

CITY           SKY/WX    TMP DP  RH WIND       PRES   REMARKS
SCRANTON       RAIN      75  72  90 CALM      29.90S FOG
MOUNT POCONO   CLOUDY    75  69  81 SW6       29.96F
ALLENTOWN      MOCLDY    83  71  67 SW8       29.89F
QUAKERTOWN*    MOCLDY    82  72  69 S9        29.91F
READING        MOCLDY    83  71  67 S8        29.88S
LANCASTER      CLOUDY    82  72  71 S7        29.90S
COATESVILLE    MOCLDY    81  73  78 S5        29.93F
POTTSTOWN      MOCLDY    83  71  67 S8        29.92F
BLUE BELL      MOCLDY    86  73  66 S7        29.90S
DOYLESTOWN     MOCLDY    82  70  66 S5        29.90F
WILLOW GROVE   NOT AVBL
NORTH PHILA    MOCLDY    86  71  60 S10G17    29.91F
PHILADELPHIA   MOCLDY    85  71  63 S13       29.91F
$$



USA.gov is the U.S. government's official web portal to all federal, state and local government web resources and services.